Wind_Speed
6 6 7 7 6 7 9 12 12 12 12 10 9 9 9 7 6 3 2 1 2 2 2 2 2 2 3 3 2 1 1 1 1 1 1 1 1 1 1 2 2 2 2 2 2 3 3 3 4
5 6 6 5 5 7 9 11 12 12 12 11 9 8 8 6 5 4 2 1 2 3 3 3 3 3 3 3 3 2 2 2 2 2 2 2 1 1 1 1 1 2 2 1 1 2 2 3 3
5 5 5 4 5 7 8 10 11 13 13 12 11 9 7 6 5 4 2 1 2 3 4 4 4 4 4 4 4 3 3 2 2 2 3 2 2 1 2 1 2 2 2 2 1 1 2 2 2
4 4 4 4 6 7 8 9 11 14 13 13 13 11 10 8 6 4 3 1 1 2 4 5 5 5 5 5 5 5 4 3 3 4 3 3 3 2 2 2 3 3 3 3 2 2 2 2 2
4 4 3 4 5 6 7 9 11 14 14 14 13 12 11 9 7 5 4 3 2 2 4 6 7 7 7 7 7 6 6 5 5 5 4 4 4 4 3 4 4 3 3 3 3 2 2 2 2
3 4 3 3 3 4 5 7 12 14 14 15 15 14 13 10 8 6 5 4 2 3 4 5 7 8 9 8 8 7 7 6 6 5 5 5 5 5 4 5 4 4 4 4 4 3 3 2 2
2 2 3 1 2 4 5 8 12 15 14 14 14 13 13 11 9 7 6 4 3 3 4 6 7 8 9 10 9 9 8 8 7 6 6 6 5 5 5 6 5 5 5 4 4 3 3 3 2
4 4 3 1 1 3 5 8 12 14 14 14 14 14 14 12 10 9 7 5 4 4 4 5 7 8 9 10 10 10 10 9 8 7 7 7 6 6 6 6 6 5 5 5 4 4 3 3 2
5 5 5 4 3 3 6 10 12 14 14 13 13 13 13 13 11 9 8 6 4 4 5 6 7 9 10 11 11 12 11 11 10 9 8 8 7 7 6 6 5 5 5 5 4 4 3 2 2
6 6 7 7 6 6 6 9 12 14 13 13 13 13 13 13 11 10 8 6 5 5 6 7 8 10 11 11 12 13 13 12 12 11 10 9 8 8 7 6 6 5 5 5 5 4 3 2 1
8 9 9 9 8 8 8 10 12 14 14 13 13 12 12 12 12 10 9 7 7 5 6 7 8 9 10 12 13 14 14 13 13 12 11 10 9 8 7 7 6 6 6 5 4 3 3 1 1
11 12 12 11 10 10 10 11 13 14 15 14 14 14 13 13 13 11 9 8 7 6 7 8 8 8 10 11 12 14 15 15 15 14 13 12 11 10 8 7 7 6 6 5 5 4 3 1 1
13 14 14 13 12 11 12 13 14 15 15 14 14 14 14 14 14 13 11 9 8 7 8 8 7 8 9 11 12 13 14 15 15 15 14 13 12 11 10 9 8 7 6 6 5 4 3 2 1
14 14 13 12 12 12 13 14 14 14 14 14 15 15 15 15 15 13 12 12 10 8 8 9 9 9 10 11 12 13 14 15 16 16 16 15 14 13 12 11 9 8 7 6 5 4 3 3 2
14 13 12 11 11 11 12 13 13 12 13 13 14 14 15 16 14 13 13 12 12 10 10 9 9 10 10 12 13 14 15 15 16 16 17 15 15 14 13 11 10 9 7 6 5 4 4 4 3
14 12 11 10 10 10 11 10 10 12 12 14 14 15 16 16 15 14 13 12 12 12 11 10 9 9 10 12 13 15 16 16 16 16 16 16 16 15 14 13 11 10 9 8 6 5 4 4 3
13 12 11 11 9 8 9 9 9 11 12 14 16 17 18 16 15 13 13 13 12 12 11 11 11 11 11 11 12 13 14 15 16 16 15 16 16 16 15 13 11 10 10 9 7 6 5 4 4
14 13 13 12 10 9 10 10 10 12 13 16 18 19 19 17 13 12 12 13 13 12 11 11 12 12 12 12 13 13 14 15 16 16 14 15 15 16 15 13 12 11 11 9 8 7 6 5 4
17 16 14 12 10 11 12 13 13 14 15 18 20 20 18 15 13 12 12 12 13 12 11 12 12 12 12 11 12 14 14 15 16 16 15 14 15 16 15 15 13 13 12 10 9 8 7 6 5
18 17 15 14 12 11 12 14 14 14 16 18 20 19 17 17 15 12 11 13 13 12 12 11 11 12 12 12 13 13 14 14 15 16 16 16 16 16 16 16 15 13 12 11 10 10 9 7 6
18 16 15 16 15 14 14 15 16 17 18 18 18 18 16 16 14 13 12 12 11 12 11 10 10 10 11 12 14 14 14 14 15 16 17 17 17 17 16 16 15 14 14 13 12 11 10 9 7
17 15 16 17 17 16 16 17 17 19 19 20 19 17 16 15 14 13 12 11 11 11 10 10 10 9 10 11 13 15 15 15 16 18 19 18 18 18 16 16 16 16 15 14 13 13 12 10 9
16 16 17 18 20 20 19 20 20 22 21 20 18 15 14 13 13 13 12 11 10 10 9 9 10 10 10 11 12 14 14 15 17 19 19 19 19 18 17 17 17 17 17 16 15 14 13 11 10
17 18 18 20 21 22 21 22 21 22 21 19 17 13 12 12 11 11 10 10 8 8 8 8 9 10 10 10 11 13 14 15 17 19 20 19 19 19 18 18 18 19 18 17 16 15 14 12 11
18 18 19 20 20 19 19 20 19 20 19 20 18 12 11 9 8 8 8 9 8 8 8 7 8 9 9 10 10 12 13 14 16 18 20 19 19 20 20 19 18 19 19 18 18 17 16 14 13
18 19 19 19 18 16 17 18 17 17 19 18 14 10 8 7 7 7 8 9 8 8 8 7 7 7 8 9 10 12 13 14 16 18 18 19 19 20 20 19 19 20 20 19 18 17 17 16 15
17 18 18 18 18 18 17 17 17 16 16 15 13 11 8 7 7 7 7 7 8 8 8 7 7 7 8 8 10 12 14 15 16 17 18 19 19 19 20 20 20 19 19 19 19 19 18 18 17
16 17 19 20 20 20 19 17 15 15 14 13 12 10 8 7 6 6 7 7 7 7 8 7 6 7 7 8 10 12 14 15 15 17 18 19 19 20 20 20 20 19 19 19 19 18 18 19 18
17 18 19 20 21 20 19 17 15 15 14 13 12 11 8 7 6 6 6 6 6 7 7 7 7 7 7 6 7 11 14 16 16 16 17 19 20 20 19 20 21 21 20 19 19 19 20 20 19
18 19 19 20 20 20 20 18 16 16 15 14 11 10 9 7 5 5 6 6 6 6 6 6 7 7 6 5 5 9 13 14 15 16 16 17 20 20 20 21 21 21 21 21 20 20 20 20 20
Wind_Direction
68 69 76 74 65 62 46 36 28 22 14 16 15 6 5 18 22 7 343 322 256 234 207 185 182 185 179 169 172 192 234 287 296 300 324 338 17 46 51 54 51 52 58 67 68 62 60 65 71
60 67 71 72 62 48 41 29 19 14 9 7 11 12 14 19 17 5 337 279 237 228 222 213 209 208 198 191 196 210 232 256 271 278 296 302 313 347 11 14 6 1 2 16 38 40 45 50 57
46 60 72 76 63 38 35 23 12 6 3 0 3 10 13 14 15 8 353 296 229 220 222 221 219 217 208 205 208 218 232 248 257 268 279 284 289 312 328 328 326 325 324 332 352 6 9 22 38
37 50 66 61 52 31 26 16 4 358 1 358 360 5 11 13 9 4 7 337 253 230 223 225 225 222 217 217 219 221 229 241 249 256 261 270 278 289 298 300 303 307 312 317 323 338 343 357 14
10 20 38 26 27 35 27 7 355 351 355 355 357 357 4 12 14 1 359 347 307 257 234 227 227 227 224 226 226 226 230 238 246 251 258 267 276 283 288 290 298 306 312 312 311 320 325 336 343
1 4 350 359 12 15 15 358 347 345 346 351 350 351 360 8 11 2 353 353 329 287 249 233 231 231 228 227 228 229 230 237 244 249 259 270 277 279 282 286 296 306 310 311 306 306 309 314 314
311 308 301 335 19 4 353 346 335 335 341 346 346 348 353 360 4 2 359 10 348 313 273 247 237 234 230 228 229 229 231 236 239 246 258 267 271 275 278 283 292 299 303 304 302 302 305 308 304
276 277 268 280 17 0 338 329 327 331 333 340 344 346 350 355 0 360 359 358 345 313 289 260 246 241 234 230 229 230 231 233 237 245 255 262 266 271 276 281 290 297 299 297 299 302 305 300 290
269 258 257 271 296 324 323 319 319 323 326 333 340 343 343 344 353 357 358 352 340 310 290 272 257 245 238 236 233 232 233 235 236 242 249 257 265 270 273 280 287 292 296 294 295 303 308 298 268
264 254 254 265 282 293 303 308 310 314 321 329 331 338 339 340 347 358 356 347 332 309 294 282 267 249 242 239 235 232 235 237 237 240 245 253 262 266 269 270 278 286 292 293 291 295 301 292 251
257 248 252 259 266 273 272 285 297 304 311 319 325 329 333 334 339 350 350 339 323 306 295 290 273 254 245 241 236 233 234 236 235 240 243 248 254 259 261 265 271 280 289 289 289 285 284 267 221
256 251 250 252 259 264 263 269 277 289 301 310 317 325 327 329 331 335 340 338 322 303 291 292 280 259 247 244 240 236 234 232 234 237 241 245 250 250 254 256 263 275 283 284 284 284 273 252 227
259 253 248 246 250 256 263 269 275 284 293 303 311 320 322 324 325 327 329 324 319 302 291 297 287 264 252 250 245 241 239 236 234 236 241 247 248 244 245 249 256 265 272 273 273 267 255 252 229
261 257 255 253 252 256 261 267 274 283 290 298 308 315 318 320 318 323 327 328 323 302 294 288 283 266 257 251 245 238 238 237 235 236 239 239 240 240 242 245 248 254 260 254 253 246 243 248 241
260 256 256 255 249 249 259 267 278 282 286 300 311 314 316 317 317 318 321 322 319 310 298 289 281 268 257 250 247 241 238 237 236 236 235 236 236 237 239 241 242 243 238 235 239 239 235 234 228
258 254 249 246 243 245 258 270 276 282 289 299 306 309 314 312 317 312 312 313 314 307 300 292 285 275 262 253 246 243 239 233 232 234 235 235 232 233 233 234 235 232 227 225 227 228 228 221 215
254 246 239 232 232 243 258 267 275 284 293 299 304 308 311 309 313 307 306 308 309 304 300 291 286 280 266 254 246 244 234 229 229 233 238 234 230 228 226 223 224 223 220 219 221 219 218 213 208
248 244 238 233 233 246 260 269 277 286 293 300 304 306 307 306 312 310 308 306 310 305 297 290 286 278 268 258 249 242 235 229 229 233 236 232 226 221 217 214 218 217 216 216 216 214 214 207 204
241 241 239 237 237 248 258 266 273 285 293 300 305 306 306 302 309 309 308 308 307 305 297 293 284 273 262 253 248 243 237 231 230 228 229 225 218 214 212 211 215 216 214 213 210 209 207 204 201
238 240 241 239 238 250 262 259 260 273 283 293 298 300 303 301 306 314 312 310 309 305 295 290 278 270 256 248 244 240 233 231 231 224 221 216 212 211 209 209 213 215 214 211 208 207 204 201 201
238 242 243 238 236 243 257 260 264 273 280 287 291 293 300 306 305 312 312 314 312 307 295 285 278 272 255 245 241 236 231 231 228 222 216 213 213 210 211 211 211 212 211 209 207 206 202 201 206
239 242 241 237 236 244 252 261 263 268 275 283 289 291 297 302 301 306 307 309 316 309 295 284 271 265 259 254 240 232 228 228 224 218 213 213 210 209 212 211 210 210 209 209 208 209 208 209 211
238 236 236 237 238 244 249 257 261 264 271 279 282 285 291 299 298 302 306 305 312 315 303 287 277 272 266 254 239 228 226 226 222 215 213 211 209 211 215 214 213 212 211 211 211 211 211 213 214
234 232 235 237 240 245 250 257 262 267 270 273 273 275 286 295 302 305 308 309 316 320 314 296 281 273 269 257 240 229 226 225 220 215 215 214 211 212 218 215 216 214 212 215 215 215 216 217 218
229 230 235 239 244 248 251 257 266 273 273 271 270 273 284 295 305 307 313 316 320 321 320 304 291 281 269 256 246 229 220 220 217 215 216 214 213 213 217 217 218 216 216 217 217 219 220 221 222
231 233 239 245 246 245 249 259 268 278 282 274 268 274 286 299 306 307 314 317 320 324 323 316 306 285 269 260 250 231 221 217 214 213 212 211 212 213 216 218 215 216 218 221 221 221 223 224 227
228 233 239 244 246 249 253 261 272 282 286 278 272 275 284 298 302 312 317 318 319 323 321 316 310 294 273 261 248 229 221 217 215 213 211 209 210 212 215 214 214 217 219 221 222 225 226 229 232
230 233 238 241 245 251 254 262 278 290 297 296 282 278 282 295 300 313 314 316 315 316 321 315 317 309 284 268 248 229 220 217 217 215 213 212 213 215 215 218 218 219 220 222 223 226 229 233 236
227 231 237 242 246 251 257 264 274 288 296 299 286 276 272 282 285 302 305 306 305 306 307 310 314 317 302 284 249 223 217 215 215 214 215 218 218 218 219 219 220 220 222 224 226 229 233 235 237
230 234 238 244 249 254 258 266 274 286 289 292 284 281 277 278 293 304 298 302 305 305 300 305 312 317 309 286 248 220 216 216 215 216 218 221 222 222 223 221 220 222 224 227 230 234 237 238 239
Height
5899 5898 5898 5898 5898 5897 5895 5894 5894 5894 5894 5893 5893 5892 5892 5893 5893 5894 5892 5890 5891 5891 5891 5892 5892 5893 5893 5894 5895 5895 5896 5896 5897 5897 5897 5897 5897 5896 5896 5895 5895 5895 5894 5894 5893 5893 5893 5893 5893
5900 5899 5899 5899 5898 5897 5896 5895 5894 5894 5894 5894 5894 5893 5892 5892 5892 5891 5890 5890 5890 5890 5891 5891 5892 5893 5893 5894 5895 5896 5896 5897 5897 5898 5898 5898 5898 5897 5897 5896 5896 5895 5895 5894 5894 5894 5894 5893 5893
5900 5899 5900 5899 5898 5897 5896 5895 5895 5894 5893 5893 5894 5893 5893 5892 5891 5890 5890 5889 5889 5890 5890 5891 5892 5893 5893 5894 5895 5896 5896 5897 5898 5898 5898 5898 5898 5898 5897 5897 5896 5896 5896 5895 5895 5894 5894 5894 5894
5901 5900 5900 5900 5898 5896 5896 5895 5894 5894 5894 5894 5893 5892 5892 5892 5890 5889 5888 5888 5889 5889 5889 5890 5891 5892 5893 5894 5895 5895 5896 5897 5898 5898 5899 5899 5899 5898 5898 5897 5897 5896 5896 5896 5895 5895 5895 5894 5894
5901 5900 5900 5899 5897 5896 5896 5895 5894 5894 5894 5893 5892 5891 5891 5891 5889 5888 5887 5887 5887 5888 5888 5889 5890 5891 5892 5893 5894 5895 5896 5897 5897 5898 5899 5899 5899 5899 5898 5898 5897 5897 5896 5896 5896 5895 5895 5895 5894
5901 5901 5900 5898 5896 5896 5895 5895 5894 5895 5894 5894 5892 5891 5890 5890 5889 5888 5886 5886 5886 5887 5888 5888 5889 5890 5891 5892 5893 5894 5895 5896 5897 5898 5899 5899 5899 5899 5898 5898 5897 5897 5897 5896 5896 5895 5895 5895 5894
5902 5901 5899 5898 5896 5896 5895 5895 5895 5895 5894 5894 5892 5890 5889 5889 5889 5887 5885 5885 5885 5886 5886 5887 5888 5889 5890 5891 5892 5893 5894 5895 5896 5897 5898 5898 5899 5899 5898 5898 5898 5897 5897 5896 5896 5895 5895 5895 5894
5901 5901 5898 5897 5896 5896 5896 5895 5895 5894 5894 5893 5892 5890 5888 5888 5888 5887 5885 5884 5884 5884 5885 5886 5886 5887 5888 5889 5891 5892 5893 5894 5895 5896 5897 5898 5898 5898 5898 5898 5897 5897 5896 5896 5896 5895 5895 5895 5894
5900 5900 5897 5897 5896 5895 5895 5894 5894 5893 5893 5892 5891 5890 5888 5887 5886 5886 5884 5883 5883 5883 5883 5884 5884 5885 5886 5887 5889 5890 5891 5892 5894 5895 5896 5897 5897 5897 5897 5897 5897 5897 5896 5896 5896 5895 5895 5895 5894
5899 5898 5897 5896 5895 5894 5894 5894 5893 5892 5892 5891 5890 5889 5887 5886 5885 5885 5884 5883 5882 5882 5881 5882 5882 5882 5884 5885 5886 5888 5889 5890 5892 5893 5894 5895 5896 5896 5897 5897 5897 5896 5896 5895 5895 5895 5895 5894 5894
5897 5896 5895 5895 5894 5893 5893 5892 5892 5891 5891 5890 5889 5889 5887 5885 5884 5884 5883 5882 5881 5880 5880 5880 5879 5880 5881 5882 5883 5885 5887 5888 5890 5891 5893 5893 5894 5895 5895 5896 5896 5896 5895 5895 5895 5895 5894 5894 5894
5895 5894 5893 5893 5893 5892 5892 5891 5891 5889 5890 5889 5888 5887 5886 5884 5883 5882 5881 5880 5879 5878 5878 5877 5877 5878 5878 5879 5880 5882 5884 5885 5887 5889 5891 5892 5892 5893 5894 5895 5895 5895 5895 5895 5894 5894 5894 5894 5894
5892 5891 5890 5890 5890 5890 5890 5889 5889 5888 5888 5887 5887 5886 5885 5883 5881 5879 5878 5877 5876 5876 5875 5875 5875 5875 5876 5876 5877 5879 5881 5883 5884 5886 5888 5890 5891 5892 5893 5893 5894 5894 5894 5894 5894 5894 5894 5894 5894
5889 5888 5888 5887 5887 5887 5887 5887 5887 5886 5886 5885 5885 5884 5883 5881 5879 5877 5875 5874 5873 5873 5873 5872 5872 5873 5873 5873 5874 5876 5878 5880 5881 5883 5885 5887 5888 5890 5891 5892 5892 5893 5893 5893 5893 5893 5893 5894 5894
5885 5886 5886 5885 5885 5885 5885 5885 5884 5884 5883 5883 5882 5881 5880 5878 5876 5874 5872 5871 5871 5870 5870 5869 5869 5869 5870 5871 5871 5873 5875 5876 5878 5880 5882 5884 5886 5887 5888 5889 5890 5891 5892 5892 5893 5893 5893 5894 5894
5882 5883 5883 5883 5882 5882 5884 5883 5882 5881 5881 5880 5880 5879 5877 5875 5873 5872 5870 5868 5868 5867 5866 5866 5866 5865 5866 5867 5868 5869 5871 5872 5874 5876 5878 5880 5883 5884 5886 5887 5889 5890 5891 5891 5892 5893 5893 5893 5893
5879 5879 5880 5880 5880 5879 5880 5880 5880 5878 5878 5877 5877 5876 5875 5873 5871 5869 5868 5866 5864 5863 5861 5861 5861 5861 5861 5863 5864 5865 5867 5869 5871 5873 5875 5877 5879 5882 5883 5885 5887 5888 5889 5890 5891 5892 5892 5892 5893
5875 5876 5876 5876 5876 5876 5876 5876 5877 5876 5875 5875 5874 5873 5871 5870 5868 5866 5865 5863 5861 5859 5858 5857 5857 5856 5857 5858 5860 5861 5863 5865 5867 5870 5872 5873 5876 5879 5881 5883 5885 5886 5888 5889 5890 5891 5891 5892 5892
5870 5871 5872 5873 5873 5873 5873 5873 5874 5873 5872 5871 5870 5870 5868 5866 5864 5863 5862 5860 5857 5856 5855 5854 5853 5853 5853 5854 5856 5857 5859 5861 5864 5866 5868 5870 5873 5876 5878 5880 5882 5884 5886 5887 5888 5890 5890 5891 5891
5866 5867 5868 5870 5869 5870 5870 5870 5870 5870 5870 5869 5868 5867 5866 5862 5861 5860 5858 5857 5854 5852 5851 5850 5850 5849 5850 5850 5852 5853 5855 5857 5860 5862 5865 5867 5870 5873 5875 5878 5880 5882 5884 5885 5887 5888 5889 5890 5890
5862 5864 5865 5866 5867 5867 5867 5867 5867 5867 5867 5867 5866 5863 5862 5860 5858 5857 5855 5854 5851 5849 5847 5846 5846 5845 5845 5847 5849 5850 5852 5854 5857 5859 5862 5864 5867 5870 5873 5875 5877 5880 5882 5883 5885 5887 5888 5888 5889
5858 5861 5862 5862 5863 5863 5864 5864 5864 5864 5864 5864 5863 5861 5859 5858 5856 5854 5852 5850 5848 5845 5844 5843 5842 5843 5843 5844 5846 5847 5849 5852 5853 5855 5858 5861 5864 5867 5870 5872 5875 5877 5879 5881 5883 5885 5886 5887 5888
5854 5857 5858 5859 5859 5860 5860 5861 5861 5861 5861 5861 5860 5858 5857 5855 5854 5851 5849 5847 5845 5843 5842 5841 5840 5840 5841 5842 5843 5844 5846 5848 5850 5852 5855 5858 5861 5864 5867 5869 5872 5874 5877 5879 5881 5882 5884 5885 5886
5850 5852 5853 5854 5855 5856 5857 5857 5857 5857 5857 5857 5856 5855 5854 5852 5850 5848 5847 5845 5843 5841 5840 5839 5839 5838 5838 5839 5840 5841 5843 5844 5847 5849 5852 5855 5858 5861 5864 5866 5869 5871 5874 5876 5878 5880 5881 5882 5884
5846 5848 5849 5850 5851 5852 5854 5853 5854 5853 5852 5852 5852 5851 5850 5849 5846 5845 5845 5843 5841 5840 5838 5837 5836 5836 5836 5836 5836 5838 5839 5842 5844 5846 5849 5852 5855 5858 5861 5863 5866 5868 5870 5873 5875 5877 5878 5880 5881
5841 5844 5846 5847 5848 5849 5849 5849 5850 5849 5848 5847 5847 5848 5847 5845 5844 5843 5842 5841 5840 5838 5837 5835 5834 5834 5834 5833 5834 5835 5837 5839 5841 5843 5846 5849 5851 5854 5857 5860 5862 5864 5867 5869 5871 5873 5875 5876 5878
5837 5839 5842 5843 5844 5844 5845 5846 5846 5845 5845 5844 5844 5844 5843 5842 5841 5840 5839 5838 5837 5836 5835 5834 5833 5832 5831 5831 5831 5832 5834 5836 5838 5841 5843 5846 5848 5851 5854 5856 5858 5860 5863 5865 5868 5870 5872 5873 5874
5834 5836 5837 5838 5839 5840 5841 5842 5842 5841 5841 5841 5840 5841 5840 5839 5839 5838 5837 5836 5835 5834 5833 5832 5831 5830 5829 5828 5828 5829 5831 5833 5836 5838 5840 5843 5845 5848 5850 5852 5855 5857 5859 5862 5864 5866 5867 5869 5870
5829 5832 5833 5834 5835 5836 5837 5841 5839 5838 5838 5838 5837 5837 5837 5836 5836 5835 5835 5835 5834 5833 5832 5831 5829 5828 5827 5826 5825 5826 5828 5830 5833 5835 5837 5839 5842 5844 5846 5849 5851 5853 5855 5858 5860 5862 5863 5865 5866
5825 5827 5829 5830 5832 5833 5833 5838 5835 5835 5835 5835 5834 5834 5834 5834 5834 5833 5833 5833 5832 5831 5830 5829 5828 5827 5825 5824 5824 5824 5826 5827 5830 5832 5834 5836 5838 5840 5842 5845 5847 5849 5852 5854 5856 5857 5858 5860 5861